When you browse on this site, cookies collect data to enhance your experience and personalize the content and advertising you see.
Visit our Privacy Policy to learn more. By continuing to use the site, you agree to this use of cookies and data.
  • In Hungary
  • List of Countries
  • For 7 days
  • Water Temperature
  • Satellite Maps
  • Weather Map
  • News
  • Weather Widgets
  • user-avatar
    Login

    Hourly Weather Moyomamba

    Today, 16 January, Wednesday

    Time Temperature Precipitation Wind Pressure Humidity
    00:00 +20°C° 0 mm 1 mps 683 mmHg 86%
    01:00 +20°C° 0 mm 1 mps 682 mmHg 85%
    02:00 +18°C° 0 mm 0 mps 682 mmHg 84%
    03:00 +18°C° 0 mm 0 mps 682 mmHg 83%
    04:00 +18°C° 0 mm 0 mps 682 mmHg 82%
    05:00 +18°C° 0.1 mm 0 mps 683 mmHg 81%
    06:00 +18°C° 0.1 mm 0 mps 683 mmHg 80%
    07:00 +19°C° 0.1 mm 0 mps 683 mmHg 79%
    08:00 +21°C° 0.2 mm 0 mps 684 mmHg 74%
    09:00 +22°C° 0.2 mm 0 mps 685 mmHg 69%
    10:00 +24°C° 0.2 mm 0 mps 686 mmHg 64%
    11:00 +25°C° 0.1 mm 0 mps 686 mmHg 59%
    12:00 +26°C° 0.1 mm 0 mps 685 mmHg 55%
    13:00 +29°C° 0.1 mm 1 mps 685 mmHg 51%
    14:00 +29°C° 0.2 mm 1 mps 684 mmHg 54%
    15:00 +28°C° 0.2 mm 1 mps 683 mmHg 57%
    16:00 +27°C° 0.2 mm 1 mps 682 mmHg 61%
    17:00 +23°C° 0.1 mm 0 mps 682 mmHg 67%
    18:00 +22°C° 0.1 mm 0 mps 682 mmHg 73%
    19:00 +20°C° 0.1 mm 0 mps 682 mmHg 79%
    20:00 +20°C° 0.3 mm 0 mps 682 mmHg 81%
    21:00 +19°C° 0.3 mm 0 mps 683 mmHg 83%
    22:00 +18°C° 0.3 mm 0 mps 683 mmHg 85%
    23:00 +18°C° 0.5 mm 0 mps 683 mmHg 86%

    Tomorrow, 17 January, Thursday

    Time Temperature Precipitation Wind Pressure Humidity
    00:00 +18°C° 0.5 mm 0 mps 683 mmHg 87%
    01:00 +18°C° 0.5 mm 0 mps 683 mmHg 88%
    02:00 +20°C° 0.4 mm 1 mps 683 mmHg 90%
    03:00 +19°C° 0.4 mm 1 mps 682 mmHg 91%
    04:00 +19°C° 0.4 mm 1 mps 682 mmHg 93%
    05:00 +19°C° 0.1 mm 1 mps 683 mmHg 92%
    06:00 +18°C° 0.1 mm 0 mps 683 mmHg 91%
    07:00 +18°C° 0.1 mm 0 mps 683 mmHg 91%
    08:00 +20°C° 0.1 mm 0 mps 684 mmHg 79%
    09:00 +25°C° 0.1 mm 1 mps 685 mmHg 68%
    10:00 +28°C° 0.1 mm 1 mps 686 mmHg 56%
    11:00 +27°C° 0.9 mm 1 mps 686 mmHg 65%
    12:00 +26°C° 0.9 mm 1 mps 685 mmHg 73%
    13:00 +22°C° 0.9 mm 0 mps 684 mmHg 82%
    14:00 +22°C° 0.8 mm 0 mps 683 mmHg 84%
    15:00 +22°C° 0.8 mm 0 mps 683 mmHg 86%
    16:00 +21°C° 0.8 mm 0 mps 682 mmHg 88%
    17:00 +20°C° 0.2 mm 0 mps 682 mmHg 89%
    18:00 +20°C° 0.2 mm 0 mps 682 mmHg 91%
    19:00 +19°C° 0.2 mm 0 mps 682 mmHg 93%
    20:00 +19°C° 0.1 mm 0 mps 682 mmHg 92%
    21:00 +21°C° 0.1 mm 1 mps 683 mmHg 92%
    22:00 +20°C° 0.1 mm 1 mps 684 mmHg 92%
    23:00 +20°C° 0 mm 1 mps 683 mmHg 91%

    Day after tomorrow, 18 January, Friday

    Time Temperature Precipitation Wind Pressure Humidity
    00:00 +19°C° 0 mm 1 mps 683 mmHg 90%
    01:00 +19°C° 0 mm 1 mps 682 mmHg 89%
    02:00 +19°C° 0 mm 1 mps 682 mmHg 88%
    03:00 +19°C° 0 mm 1 mps 682 mmHg 86%
    04:00 +18°C° 0 mm 1 mps 681 mmHg 85%
    05:00 +19°C° 0 mm 1 mps 682 mmHg 83%
    06:00 +19°C° 0 mm 1 mps 682 mmHg 81%
    07:00 +18°C° 0 mm 0 mps 683 mmHg 79%
    08:00 +23°C° 0 mm 1 mps 684 mmHg 66%
    09:00 +26°C° 0 mm 1 mps 685 mmHg 53%
    10:00 +30°C° 0 mm 1 mps 686 mmHg 40%
    11:00 +30°C° 0 mm 1 mps 685 mmHg 41%
    12:00 +30°C° 0 mm 1 mps 684 mmHg 42%
    13:00 +30°C° 0 mm 1 mps 684 mmHg 44%
    14:00 +28°C° 0 mm 0 mps 683 mmHg 45%
    15:00 +27°C° 0 mm 0 mps 682 mmHg 45%
    16:00 +27°C° 0 mm 0 mps 681 mmHg 46%
    17:00 +25°C° 0 mm 0 mps 681 mmHg 53%
    18:00 +23°C° 0 mm 0 mps 681 mmHg 59%
    19:00 +21°C° 0 mm 0 mps 681 mmHg 66%
    20:00 +21°C° 0.2 mm 0 mps 682 mmHg 71%
    21:00 +20°C° 0.2 mm 0 mps 682 mmHg 76%
    22:00 +21°C° 0.2 mm 1 mps 683 mmHg 81%
    23:00 +21°C° 0.6 mm 1 mps 683 mmHg 82%

    19 January, Saturday

    Time Temperature Precipitation Wind Pressure Humidity
    00:00 +21°C° 0.6 mm 1 mps 682 mmHg 84%
    01:00 +20°C° 0.6 mm 1 mps 682 mmHg 86%
    02:00 +18°C° 0.3 mm 0 mps 682 mmHg 86%
    03:00 +18°C° 0.3 mm 0 mps 682 mmHg 87%
    04:00 +18°C° 0.3 mm 0 mps 681 mmHg 88%
    05:00 +18°C° 0.2 mm 0 mps 682 mmHg 87%
    06:00 +18°C° 0.2 mm 0 mps 683 mmHg 87%
    07:00 +19°C° 0.2 mm 0 mps 683 mmHg 86%
    08:00 +19°C° 0.4 mm 0 mps 684 mmHg 84%
    09:00 +20°C° 0.4 mm 0 mps 684 mmHg 81%
    10:00 +21°C° 0.4 mm 0 mps 685 mmHg 79%
    11:00 +22°C° 0.3 mm 0 mps 684 mmHg 76%
    12:00 +24°C° 0.3 mm 1 mps 684 mmHg 74%
    13:00 +25°C° 0.3 mm 1 mps 683 mmHg 72%
    14:00 +26°C° 0.1 mm 1 mps 682 mmHg 66%
    15:00 +28°C° 0.1 mm 1 mps 682 mmHg 60%
    16:00 +29°C° 0.1 mm 1 mps 681 mmHg 53%
    17:00 +27°C° 0.1 mm 1 mps 681 mmHg 62%
    18:00 +22°C° 0.1 mm 0 mps 681 mmHg 70%
    19:00 +20°C° 0.1 mm 0 mps 681 mmHg 79%
    20:00 +20°C° 0 mm 0 mps 681 mmHg 80%
    21:00 +19°C° 0 mm 0 mps 682 mmHg 82%
    22:00 +19°C° 0 mm 0 mps 683 mmHg 84%
    23:00 +19°C° 0 mm 0 mps 683 mmHg 84%

    20 January, Sunday

    Time Temperature Precipitation Wind Pressure Humidity
    00:00 +18°C° 0 mm 0 mps 682 mmHg 84%
    01:00 +18°C° 0 mm 0 mps 682 mmHg 84%
    02:00 +18°C° 0.1 mm 0 mps 682 mmHg 83%
    03:00 +18°C° 0.1 mm 0 mps 682 mmHg 83%
    04:00 +18°C° 0.1 mm 0 mps 681 mmHg 82%
    05:00 +18°C° 0 mm 0 mps 682 mmHg 81%
    06:00 +19°C° 0 mm 0 mps 682 mmHg 79%
    07:00 +19°C° 0 mm 0 mps 683 mmHg 78%
    08:00 +24°C° 0 mm 1 mps 684 mmHg 67%
    09:00 +27°C° 0 mm 1 mps 684 mmHg 56%
    10:00 +30°C° 0 mm 1 mps 685 mmHg 45%
    11:00 +30°C° 0.1 mm 1 mps 684 mmHg 45%
    12:00 +30°C° 0.1 mm 1 mps 684 mmHg 45%
    13:00 +31°C° 0.1 mm 1 mps 683 mmHg 45%
    14:00 +30°C° 0.2 mm 1 mps 682 mmHg 48%
    15:00 +30°C° 0.2 mm 1 mps 681 mmHg 52%
    16:00 +29°C° 0.2 mm 1 mps 680 mmHg 55%
    17:00 +27°C° 0.3 mm 1 mps 680 mmHg 64%
    18:00 +25°C° 0.3 mm 1 mps 680 mmHg 73%
    19:00 +21°C° 0.3 mm 0 mps 680 mmHg 82%
    20:00 +21°C° 0.8 mm 0 mps 681 mmHg 84%
    21:00 +20°C° 0.8 mm 0 mps 681 mmHg 86%
    22:00 +19°C° 0.8 mm 0 mps 682 mmHg 89%
    23:00 +21°C° 0.8 mm 1 mps 682 mmHg 88%

    21 January, Monday

    Time Temperature Precipitation Wind Pressure Humidity
    00:00 +21°C° 0.8 mm 1 mps 681 mmHg 88%
    01:00 +21°C° 0.8 mm 1 mps 681 mmHg 88%
    02:00 +21°C° 0.7 mm 1 mps 681 mmHg 87%
    03:00 +20°C° 0.7 mm 1 mps 681 mmHg 87%
    04:00 +20°C° 0.7 mm 1 mps 680 mmHg 87%
    05:00 +21°C° 0.3 mm 1 mps 681 mmHg 86%
    06:00 +19°C° 0.3 mm 0 mps 682 mmHg 85%
    07:00 +19°C° 0.3 mm 0 mps 682 mmHg 84%
    08:00 +22°C° 0.3 mm 0 mps 683 mmHg 75%
    09:00 +25°C° 0.3 mm 0 mps 684 mmHg 66%
    10:00 +28°C° 0.3 mm 0 mps 685 mmHg 58%
    11:00 +29°C° 0.6 mm 0 mps 684 mmHg 58%
    12:00 +31°C° 0.6 mm 1 mps 683 mmHg 58%
    13:00 +31°C° 0.6 mm 1 mps 682 mmHg 58%
    14:00 +31°C° 0.9 mm 1 mps 681 mmHg 61%
    15:00 +30°C° 0.9 mm 1 mps 680 mmHg 63%
    16:00 +29°C° 0.9 mm 1 mps 679 mmHg 66%
    17:00 +27°C° 0.6 mm 1 mps 679 mmHg 73%
    18:00 +25°C° 0.6 mm 1 mps 679 mmHg 79%
    19:00 +21°C° 0.6 mm 0 mps 679 mmHg 85%
    20:00 +21°C° 1.1 mm 0 mps 680 mmHg 87%
    21:00 +20°C° 1.1 mm 0 mps 681 mmHg 89%
    22:00 +20°C° 1.1 mm 0 mps 681 mmHg 92%
    23:00 +20°C° 0.7 mm 0 mps 681 mmHg 91%
    Show more